Tracking 28790 objects as of 19-Apr-2024
HD Live streaming from Space Station
objects crossing your sky now

DIAMANT B-P4 DEB

Track DIAMANT B-P4 DEB now!
10-day predictions


NORAD ID: 7654
Int'l Code: 1975-010C
Perigee: 791.5 km
Apogee: 1,045.1 km
Inclination: 49.8 °
Period: 103.2 minutes
Semi major axis: 7289 km
RCS: 0.0394 m2 (small)
Launch date: February 6, 1975
Source: France (FR)
Launch site: FRENCH GUIANA (FRGUI)

Note: This is SATELLITE DEBRIS
Your satellite tracking list
Your tracking list is empty




NASA's NSSDC Master Catalog

Two Line Element Set (TLE):
1 07654U 75010C   24109.45541754  .00000846  00000-0  64625-3 0  9990
2 07654  49.8444 129.3521 0173946 314.0109  44.6565 13.95004960499670
Source of the keplerian elements: AFSPC